Year,Month,Day,Hour,Minute,Value (Times are PST for temperature in C)
2021,06,26,08,01,25.30
2021,06,26,08,02,25.30
2021,06,26,08,03,25.30
2021,06,26,08,04,25.30
2021,06,26,08,05,25.30
2021,06,26,08,06,25.30
2021,06,26,08,07,25.20
2021,06,26,08,08,25.20
2021,06,26,08,09,25.20
2021,06,26,08,10,25.20
2021,06,26,08,11,25.20
2021,06,26,08,12,25.20
2021,06,26,08,13,25.20
2021,06,26,08,14,25.20
2021,06,26,08,15,25.20
2021,06,26,08,16,25.20
2021,06,26,08,17,25.30
2021,06,26,08,18,25.30
2021,06,26,08,19,25.30
2021,06,26,08,20,25.40
2021,06,26,08,21,25.40
2021,06,26,08,22,25.40
2021,06,26,08,23,25.40
2021,06,26,08,24,25.00
2021,06,26,08,25,24.70
2021,06,26,08,26,24.50
2021,06,26,08,27,24.40
2021,06,26,08,28,24.10
2021,06,26,08,29,24.00
2021,06,26,08,30,23.60
2021,06,26,08,31,23.40
2021,06,26,08,32,23.20
2021,06,26,08,33,23.00
2021,06,26,08,34,22.90
2021,06,26,08,35,22.90
2021,06,26,08,36,22.80
2021,06,26,08,37,22.90
2021,06,26,08,38,22.90
2021,06,26,08,39,22.90
2021,06,26,08,40,22.90
2021,06,26,08,41,22.90
2021,06,26,08,42,22.80
2021,06,26,08,43,22.60
2021,06,26,08,44,22.30
2021,06,26,08,45,22.10
2021,06,26,08,46,21.90
2021,06,26,08,47,21.80
2021,06,26,08,48,21.70
2021,06,26,08,49,21.70
2021,06,26,08,50,21.60
2021,06,26,08,51,21.70
2021,06,26,08,52,21.70
2021,06,26,08,53,21.70
2021,06,26,08,54,21.70
2021,06,26,08,55,21.80
2021,06,26,08,56,21.80
2021,06,26,08,57,21.90
2021,06,26,08,58,21.90
2021,06,26,08,59,21.90
2021,06,26,09,00,22.00
2021,06,26,09,01,22.00
2021,06,26,09,02,21.90
2021,06,26,09,03,21.90
2021,06,26,09,04,21.90
2021,06,26,09,05,21.90
2021,06,26,09,06,21.80
2021,06,26,09,07,21.70
2021,06,26,09,08,21.60
2021,06,26,09,09,21.60
2021,06,26,09,10,21.60
2021,06,26,09,11,21.60
2021,06,26,09,12,21.60
2021,06,26,09,13,21.60
2021,06,26,09,14,21.70
2021,06,26,09,15,21.70
2021,06,26,09,16,21.80
2021,06,26,09,17,21.90
2021,06,26,09,18,22.00
2021,06,26,09,19,22.00
2021,06,26,09,20,22.10
2021,06,26,09,21,22.20
2021,06,26,09,22,22.30
2021,06,26,09,23,22.40
2021,06,26,09,24,22.40
2021,06,26,09,25,22.50
2021,06,26,09,26,22.60
2021,06,26,09,27,22.70
2021,06,26,09,28,22.80
2021,06,26,09,29,22.80
2021,06,26,09,30,22.90
2021,06,26,09,31,23.00
2021,06,26,09,32,23.20
2021,06,26,09,33,23.30
2021,06,26,09,34,23.30
2021,06,26,09,35,23.30
2021,06,26,09,36,23.30
2021,06,26,09,37,23.30
2021,06,26,09,38,23.30
2021,06,26,09,39,23.30
2021,06,26,09,40,23.30
2021,06,26,09,41,23.30
2021,06,26,09,42,23.40
2021,06,26,09,43,23.50
2021,06,26,09,44,23.60
2021,06,26,09,45,23.70
2021,06,26,09,46,23.70
2021,06,26,09,47,23.80
2021,06,26,09,48,23.90
2021,06,26,09,49,24.10
2021,06,26,09,50,24.20
2021,06,26,09,51,24.40
2021,06,26,09,52,24.50
2021,06,26,09,53,24.60
2021,06,26,09,54,24.70
2021,06,26,09,55,24.70
2021,06,26,09,56,24.80
2021,06,26,09,57,24.80
2021,06,26,09,58,24.90
2021,06,26,09,59,25.00
2021,06,26,10,00,25.00
2021,06,26,10,01,25.10
2021,06,26,10,02,25.10
2021,06,26,10,03,25.10
2021,06,26,10,04,25.10
2021,06,26,10,05,25.10
2021,06,26,10,06,25.10
2021,06,26,10,07,25.10
2021,06,26,10,08,25.20
2021,06,26,10,09,25.20
2021,06,26,10,10,25.30
2021,06,26,10,11,25.40
2021,06,26,10,12,25.40
2021,06,26,10,13,25.50
2021,06,26,10,14,25.70
2021,06,26,10,15,25.80
2021,06,26,10,16,25.80
2021,06,26,10,17,25.90
2021,06,26,10,18,26.00
2021,06,26,10,19,26.10
2021,06,26,10,20,26.20
2021,06,26,10,21,26.40
2021,06,26,10,22,26.50
2021,06,26,10,23,26.60
2021,06,26,10,24,26.60
2021,06,26,10,25,26.70
2021,06,26,10,26,26.70
2021,06,26,10,27,26.70
2021,06,26,10,28,26.80
2021,06,26,10,29,26.80
2021,06,26,10,30,26.90
2021,06,26,10,31,26.90
2021,06,26,10,32,27.00
2021,06,26,10,33,27.10
2021,06,26,10,34,27.10
2021,06,26,10,35,27.20
2021,06,26,10,36,27.30
2021,06,26,10,37,27.30
2021,06,26,10,38,27.40
2021,06,26,10,39,27.50
2021,06,26,10,40,27.60
2021,06,26,10,41,27.70
2021,06,26,10,42,27.70
2021,06,26,10,43,27.80
2021,06,26,10,44,27.80
2021,06,26,10,45,27.80
2021,06,26,10,46,27.90
2021,06,26,10,47,27.90
2021,06,26,10,48,28.00
2021,06,26,10,49,28.10
2021,06,26,10,50,28.20
2021,06,26,10,51,28.30
2021,06,26,10,52,28.40
2021,06,26,10,53,28.60
2021,06,26,10,54,28.70
2021,06,26,10,55,28.80
2021,06,26,10,56,28.90
2021,06,26,10,57,29.00
2021,06,26,10,58,29.10
2021,06,26,10,59,29.20
2021,06,26,11,00,29.30
2021,06,26,11,01,29.30
2021,06,26,11,02,29.30
2021,06,26,11,03,29.30
2021,06,26,11,04,29.30
2021,06,26,11,05,29.30
2021,06,26,11,06,29.30
2021,06,26,11,07,29.30
2021,06,26,11,08,29.30
2021,06,26,11,09,29.20
2021,06,26,11,10,29.20
2021,06,26,11,11,29.20
2021,06,26,11,12,29.10
2021,06,26,11,13,29.10
2021,06,26,11,14,29.20
2021,06,26,11,15,29.30
2021,06,26,11,16,29.40
2021,06,26,11,17,29.50
2021,06,26,11,18,29.60
2021,06,26,11,19,29.70
2021,06,26,11,20,29.70
2021,06,26,11,21,29.80
2021,06,26,11,22,29.80
2021,06,26,11,23,29.80
2021,06,26,11,24,29.80
2021,06,26,11,25,29.80
2021,06,26,11,26,29.80
2021,06,26,11,27,29.90
2021,06,26,11,28,29.90
2021,06,26,11,29,29.90
2021,06,26,11,30,29.90
2021,06,26,11,31,29.90
2021,06,26,11,32,29.90
2021,06,26,11,33,29.90
2021,06,26,11,34,30.00
2021,06,26,11,35,30.10
2021,06,26,11,36,30.10
2021,06,26,11,37,30.10
2021,06,26,11,38,30.10
2021,06,26,11,39,30.10
2021,06,26,11,40,30.10
2021,06,26,11,41,30.10
2021,06,26,11,42,30.10
2021,06,26,11,43,30.10
2021,06,26,11,44,30.10
2021,06,26,11,45,30.20
2021,06,26,11,46,30.20
2021,06,26,11,47,30.20
2021,06,26,11,48,30.10
2021,06,26,11,49,30.10
2021,06,26,11,50,30.10
2021,06,26,11,51,30.10
2021,06,26,11,52,30.10
2021,06,26,11,53,30.10
2021,06,26,11,54,30.10
2021,06,26,11,55,30.10
2021,06,26,11,56,30.20
2021,06,26,11,57,30.30
2021,06,26,11,58,30.30
2021,06,26,11,59,30.50
2021,06,26,12,00,30.60
2021,06,26,12,01,30.60
2021,06,26,12,02,30.60
2021,06,26,12,03,30.60
2021,06,26,12,04,30.40
2021,06,26,12,05,30.40
2021,06,26,12,06,30.40
2021,06,26,12,07,30.60
2021,06,26,12,08,30.60
2021,06,26,12,09,30.80
2021,06,26,12,10,30.90
2021,06,26,12,11,31.00
2021,06,26,12,12,31.10
2021,06,26,12,13,31.20
2021,06,26,12,14,31.10
2021,06,26,12,15,31.10
2021,06,26,12,16,31.00
2021,06,26,12,17,31.00
2021,06,26,12,18,30.90
2021,06,26,12,19,30.90
2021,06,26,12,20,30.90
2021,06,26,12,21,30.90
2021,06,26,12,22,31.00
2021,06,26,12,23,31.10
2021,06,26,12,24,31.20
2021,06,26,12,25,31.30
2021,06,26,12,26,31.40
2021,06,26,12,27,31.50
2021,06,26,12,28,31.60
2021,06,26,12,29,31.60
2021,06,26,12,30,31.60
2021,06,26,12,31,31.60
2021,06,26,12,32,31.60
2021,06,26,12,33,31.60
2021,06,26,12,34,31.50
2021,06,26,12,35,31.50
2021,06,26,12,36,31.60
2021,06,26,12,37,31.60
2021,06,26,12,38,31.60
2021,06,26,12,39,31.60
2021,06,26,12,40,31.70
2021,06,26,12,41,31.80
2021,06,26,12,42,31.70
2021,06,26,12,43,31.80
2021,06,26,12,44,31.80
2021,06,26,12,45,31.90
2021,06,26,12,46,31.90
2021,06,26,12,47,31.90
2021,06,26,12,48,31.90
2021,06,26,12,49,31.90
2021,06,26,12,50,31.70
2021,06,26,12,51,31.40
2021,06,26,12,52,31.20
2021,06,26,12,53,31.10
2021,06,26,12,54,30.90
2021,06,26,12,55,30.70
2021,06,26,12,56,30.40
2021,06,26,12,57,30.20
2021,06,26,12,58,29.80
2021,06,26,12,59,29.50
2021,06,26,13,00,29.20
2021,06,26,13,01,28.90
2021,06,26,13,02,28.70
2021,06,26,13,03,28.40
2021,06,26,13,04,28.10
2021,06,26,13,05,27.70
2021,06,26,13,06,27.30
2021,06,26,13,07,26.90
2021,06,26,13,08,26.70
2021,06,26,13,09,26.50
2021,06,26,13,10,26.40
2021,06,26,13,11,26.30
2021,06,26,13,12,26.20
2021,06,26,13,13,26.20
2021,06,26,13,14,26.10
2021,06,26,13,15,25.90
2021,06,26,13,16,25.80
2021,06,26,13,17,25.80
2021,06,26,13,18,25.80
2021,06,26,13,19,25.80
2021,06,26,13,20,25.80
2021,06,26,13,21,25.80
2021,06,26,13,22,25.90
2021,06,26,13,23,25.90
2021,06,26,13,24,26.00
2021,06,26,13,25,26.00
2021,06,26,13,26,26.00
2021,06,26,13,27,26.00
2021,06,26,13,28,26.00
2021,06,26,13,29,26.00
2021,06,26,13,30,26.10
2021,06,26,13,31,26.20
2021,06,26,13,32,26.30
2021,06,26,13,33,26.40
2021,06,26,13,34,26.60
2021,06,26,13,35,26.60
2021,06,26,13,36,26.60
2021,06,26,13,37,26.60
2021,06,26,13,38,26.60
2021,06,26,13,39,26.60
2021,06,26,13,40,26.60
2021,06,26,13,41,26.60
2021,06,26,13,42,26.60
2021,06,26,13,43,26.70
2021,06,26,13,44,26.80
2021,06,26,13,45,26.90
2021,06,26,13,46,26.90
2021,06,26,13,47,26.90
2021,06,26,13,48,26.90
2021,06,26,13,49,26.90
2021,06,26,13,50,26.90
2021,06,26,13,51,26.80
2021,06,26,13,52,26.60
2021,06,26,13,53,26.50
2021,06,26,13,54,26.40
2021,06,26,13,55,26.30
2021,06,26,13,56,26.30
2021,06,26,13,57,26.30
2021,06,26,13,58,26.40
2021,06,26,13,59,26.50
2021,06,26,14,00,26.60
2021,06,26,14,01,26.60
2021,06,26,14,02,26.80
2021,06,26,14,03,26.90
2021,06,26,14,04,26.90
2021,06,26,14,05,27.00
2021,06,26,14,06,27.00
2021,06,26,14,07,26.90
2021,06,26,14,08,26.80
2021,06,26,14,09,26.70
2021,06,26,14,10,26.70
2021,06,26,14,11,26.70
2021,06,26,14,12,26.80
2021,06,26,14,13,26.90
2021,06,26,14,14,27.00
2021,06,26,14,15,27.10
2021,06,26,14,16,27.20
2021,06,26,14,17,27.20
2021,06,26,14,18,27.20
2021,06,26,14,19,27.30
2021,06,26,14,20,27.30
2021,06,26,14,21,27.30
2021,06,26,14,22,27.30
2021,06,26,14,23,27.30
2021,06,26,14,24,27.30
2021,06,26,14,25,27.30
2021,06,26,14,26,27.40
2021,06,26,14,27,27.50
2021,06,26,14,28,27.60
2021,06,26,14,29,27.60
2021,06,26,14,30,27.70
2021,06,26,14,31,27.70
2021,06,26,14,32,27.70
2021,06,26,14,33,27.70
2021,06,26,14,34,27.70
2021,06,26,14,35,27.80
2021,06,26,14,36,27.80
2021,06,26,14,37,27.90
2021,06,26,14,38,27.90
2021,06,26,14,39,27.90
2021,06,26,14,40,28.00
2021,06,26,14,41,28.10
2021,06,26,14,42,28.20
2021,06,26,14,43,28.40
2021,06,26,14,44,28.50
2021,06,26,14,45,28.60
2021,06,26,14,46,28.70
2021,06,26,14,47,28.80
2021,06,26,14,48,28.90
2021,06,26,14,49,28.90
2021,06,26,14,50,28.90
2021,06,26,14,51,28.90
2021,06,26,14,52,28.90
2021,06,26,14,53,28.90
2021,06,26,14,54,28.90
2021,06,26,14,55,28.90
2021,06,26,14,56,29.00
2021,06,26,14,57,29.10
2021,06,26,14,58,29.10
2021,06,26,14,59,29.10
2021,06,26,15,00,29.00
2021,06,26,15,01,29.00
2021,06,26,15,02,28.90
2021,06,26,15,03,28.90
2021,06,26,15,04,29.00
2021,06,26,15,05,29.10
2021,06,26,15,06,29.20
2021,06,26,15,07,29.30
2021,06,26,15,08,29.40
2021,06,26,15,09,29.60
2021,06,26,15,10,29.70
2021,06,26,15,11,29.80
2021,06,26,15,12,29.80
2021,06,26,15,13,29.80
2021,06,26,15,14,29.90
2021,06,26,15,15,29.90
2021,06,26,15,16,29.90
2021,06,26,15,17,29.90
2021,06,26,15,18,29.80
2021,06,26,15,19,29.90
2021,06,26,15,20,29.80
2021,06,26,15,21,29.80
2021,06,26,15,22,29.80
2021,06,26,15,23,29.80
2021,06,26,15,24,29.80
2021,06,26,15,25,29.80
2021,06,26,15,26,29.80
2021,06,26,15,27,29.80
2021,06,26,15,28,29.80
2021,06,26,15,29,29.90
2021,06,26,15,30,29.90
2021,06,26,15,31,30.00
2021,06,26,15,32,30.10
2021,06,26,15,33,30.20
2021,06,26,15,34,30.30
2021,06,26,15,35,30.40
2021,06,26,15,36,30.60
2021,06,26,15,37,30.80
2021,06,26,15,38,30.90
2021,06,26,15,39,31.10
2021,06,26,15,40,31.10
2021,06,26,15,41,31.00
2021,06,26,15,42,30.80
2021,06,26,15,43,30.70
2021,06,26,15,44,30.40
2021,06,26,15,45,30.00
2021,06,26,15,46,29.70
2021,06,26,15,47,29.50
2021,06,26,15,48,29.30
2021,06,26,15,49,29.10
2021,06,26,15,50,28.90
2021,06,26,15,51,28.90
2021,06,26,15,52,28.80
2021,06,26,15,53,28.60
2021,06,26,15,54,28.50
2021,06,26,15,55,28.30
2021,06,26,15,56,28.20
2021,06,26,15,57,28.00
2021,06,26,15,58,28.00
2021,06,26,15,59,27.90
2021,06,26,16,00,27.90
2021,06,26,16,01,28.00
2021,06,26,16,02,28.10
2021,06,26,16,03,28.20
2021,06,26,16,04,28.30
2021,06,26,16,05,28.40
2021,06,26,16,06,28.50
2021,06,26,16,07,28.60
2021,06,26,16,08,28.60
2021,06,26,16,09,28.70
2021,06,26,16,10,28.80
2021,06,26,16,11,28.90
2021,06,26,16,12,28.90
2021,06,26,16,13,28.90
2021,06,26,16,14,28.90
2021,06,26,16,15,28.90
2021,06,26,16,16,28.90
2021,06,26,16,17,28.90
2021,06,26,16,18,28.80
2021,06,26,16,19,28.70
2021,06,26,16,20,28.70
2021,06,26,16,21,28.70
2021,06,26,16,22,28.60
2021,06,26,16,23,28.60
2021,06,26,16,24,28.50
2021,06,26,16,25,28.40
2021,06,26,16,26,28.40
2021,06,26,16,27,28.40
2021,06,26,16,28,28.40
2021,06,26,16,29,28.30
2021,06,26,16,30,28.30
2021,06,26,16,31,28.30
2021,06,26,16,32,28.30
2021,06,26,16,33,28.30
2021,06,26,16,34,28.40
2021,06,26,16,35,28.40
2021,06,26,16,36,28.50
2021,06,26,16,37,28.60
2021,06,26,16,38,28.70
2021,06,26,16,39,28.70
2021,06,26,16,40,28.60
2021,06,26,16,41,28.60
2021,06,26,16,42,28.60
2021,06,26,16,43,28.60
2021,06,26,16,44,28.60
2021,06,26,16,45,28.60
2021,06,26,16,46,28.60
2021,06,26,16,47,28.60
2021,06,26,16,48,28.70
2021,06,26,16,49,28.70
2021,06,26,16,50,28.70
2021,06,26,16,51,28.60
2021,06,26,16,52,28.60
2021,06,26,16,53,28.60
2021,06,26,16,54,28.60
2021,06,26,16,55,28.60
2021,06,26,16,56,28.60
2021,06,26,16,57,28.70
2021,06,26,16,58,28.70
2021,06,26,16,59,28.80
2021,06,26,17,00,28.80
2021,06,26,17,01,28.80
2021,06,26,17,02,28.80
2021,06,26,17,03,28.80
2021,06,26,17,04,28.80
2021,06,26,17,05,28.90
2021,06,26,17,06,28.90
2021,06,26,17,07,28.90
2021,06,26,17,08,29.00
2021,06,26,17,09,29.10
2021,06,26,17,10,29.10
2021,06,26,17,11,29.20
2021,06,26,17,12,29.20
2021,06,26,17,13,29.20
2021,06,26,17,14,29.30
2021,06,26,17,15,29.30
2021,06,26,17,16,29.30
2021,06,26,17,17,29.30
2021,06,26,17,18,29.40
2021,06,26,17,19,29.40
2021,06,26,17,20,29.40
2021,06,26,17,21,29.50
2021,06,26,17,22,29.50
2021,06,26,17,23,29.60
2021,06,26,17,24,29.60
2021,06,26,17,25,29.60
2021,06,26,17,26,29.70
2021,06,26,17,27,29.70
2021,06,26,17,28,29.70
2021,06,26,17,29,29.70
2021,06,26,17,30,29.70
2021,06,26,17,31,29.70
2021,06,26,17,32,29.70
2021,06,26,17,33,29.70
2021,06,26,17,34,29.70
2021,06,26,17,35,29.70
2021,06,26,17,36,29.70
2021,06,26,17,37,29.80
2021,06,26,17,38,29.80
2021,06,26,17,39,29.80
2021,06,26,17,40,29.90
2021,06,26,17,41,29.90
2021,06,26,17,42,30.00
2021,06,26,17,43,30.10
2021,06,26,17,44,30.10
2021,06,26,17,45,30.20
2021,06,26,17,46,30.20
2021,06,26,17,47,30.20
2021,06,26,17,48,30.30
2021,06,26,17,49,30.30
2021,06,26,17,50,30.40
2021,06,26,17,51,30.40
2021,06,26,17,52,30.50
2021,06,26,17,53,30.60
2021,06,26,17,54,30.60
2021,06,26,17,55,30.60
2021,06,26,17,56,30.60
2021,06,26,17,57,30.60
2021,06,26,17,58,30.70
2021,06,26,17,59,30.60
2021,06,26,18,00,30.60
2021,06,26,18,01,30.50
2021,06,26,18,02,30.40
2021,06,26,18,03,30.30
2021,06,26,18,04,30.30
2021,06,26,18,05,30.30
2021,06,26,18,06,30.20
2021,06,26,18,07,30.20
2021,06,26,18,08,30.30
2021,06,26,18,09,30.20
2021,06,26,18,10,30.20
2021,06,26,18,11,30.20
2021,06,26,18,12,30.10
2021,06,26,18,13,30.10
2021,06,26,18,14,30.10
2021,06,26,18,15,30.10
2021,06,26,18,16,30.10
2021,06,26,18,17,30.20
2021,06,26,18,18,30.20
2021,06,26,18,19,30.30
2021,06,26,18,20,30.40
2021,06,26,18,21,30.50
2021,06,26,18,22,30.60
2021,06,26,18,23,30.70
2021,06,26,18,24,30.80
2021,06,26,18,25,30.80
2021,06,26,18,26,30.90
2021,06,26,18,27,30.90
2021,06,26,18,28,31.00
2021,06,26,18,29,30.90
2021,06,26,18,30,30.90
2021,06,26,18,31,30.90
2021,06,26,18,32,30.90
2021,06,26,18,33,30.90
2021,06,26,18,34,30.80
2021,06,26,18,35,30.70
2021,06,26,18,36,30.60
2021,06,26,18,37,30.40
2021,06,26,18,38,30.30
2021,06,26,18,39,30.30
2021,06,26,18,40,30.30
2021,06,26,18,41,30.30
2021,06,26,18,42,30.40
2021,06,26,18,43,30.40
2021,06,26,18,44,30.30
2021,06,26,18,45,30.30
2021,06,26,18,46,30.30
2021,06,26,18,47,30.20
2021,06,26,18,48,30.20
2021,06,26,18,49,30.20
2021,06,26,18,50,30.20
2021,06,26,18,51,30.20
2021,06,26,18,52,30.20
2021,06,26,18,53,30.30
2021,06,26,18,54,30.30
2021,06,26,18,55,30.40
2021,06,26,18,56,30.50
2021,06,26,18,57,30.60
2021,06,26,18,58,30.70
2021,06,26,18,59,30.70
2021,06,26,19,00,30.70
2021,06,26,19,01,30.70
2021,06,26,19,02,30.70
2021,06,26,19,03,30.70
2021,06,26,19,04,30.70
2021,06,26,19,05,30.70
2021,06,26,19,06,30.60
2021,06,26,19,07,30.60
2021,06,26,19,08,30.50
2021,06,26,19,09,30.40
2021,06,26,19,10,30.40
2021,06,26,19,11,30.30
2021,06,26,19,12,30.20
2021,06,26,19,13,30.20
2021,06,26,19,14,30.10
2021,06,26,19,15,30.10
2021,06,26,19,16,30.10
2021,06,26,19,17,30.00
2021,06,26,19,18,29.90
2021,06,26,19,19,29.90
2021,06,26,19,20,29.90
2021,06,26,19,21,29.90
2021,06,26,19,22,30.10
2021,06,26,19,23,30.10
2021,06,26,19,24,30.10
2021,06,26,19,25,30.10
2021,06,26,19,26,30.20
2021,06,26,19,27,30.20
2021,06,26,19,28,30.20
2021,06,26,19,29,30.20
2021,06,26,19,30,30.20
2021,06,26,19,31,30.30
2021,06,26,19,32,30.30
2021,06,26,19,33,30.30
2021,06,26,19,34,30.40
2021,06,26,19,35,30.40
2021,06,26,19,36,30.40
2021,06,26,19,37,30.40
2021,06,26,19,38,30.50
2021,06,26,19,39,30.60
2021,06,26,19,40,30.60
2021,06,26,19,41,30.60
2021,06,26,19,42,30.60
2021,06,26,19,43,30.70
2021,06,26,19,44,30.70
2021,06,26,19,45,30.70
2021,06,26,19,46,30.70
2021,06,26,19,47,30.70
2021,06,26,19,48,30.70
2021,06,26,19,49,30.80
2021,06,26,19,50,30.80
2021,06,26,19,51,30.80
2021,06,26,19,52,30.80
2021,06,26,19,53,30.80
2021,06,26,19,54,30.90
2021,06,26,19,55,30.90
2021,06,26,19,56,30.90
2021,06,26,19,57,30.90
2021,06,26,19,58,30.80
2021,06,26,19,59,30.80
2021,06,26,20,00,30.80
2021,06,26,20,01,30.80
2021,06,26,20,02,30.70
2021,06,26,20,03,30.70
2021,06,26,20,04,30.70
2021,06,26,20,05,30.60
2021,06,26,20,06,30.60
2021,06,26,20,07,30.60
2021,06,26,20,08,30.60
2021,06,26,20,09,30.60
2021,06,26,20,10,30.60
2021,06,26,20,11,30.60
2021,06,26,20,12,30.60
2021,06,26,20,13,30.60
2021,06,26,20,14,30.60
2021,06,26,20,15,30.60
2021,06,26,20,16,30.70
2021,06,26,20,17,30.70
2021,06,26,20,18,30.70
2021,06,26,20,19,30.70
2021,06,26,20,20,30.70
2021,06,26,20,21,30.70
2021,06,26,20,22,30.60
2021,06,26,20,23,30.60
2021,06,26,20,24,30.40
2021,06,26,20,25,30.40
2021,06,26,20,26,30.40
2021,06,26,20,27,30.40
2021,06,26,20,28,30.30
2021,06,26,20,29,30.30
2021,06,26,20,30,30.30
2021,06,26,20,31,30.30
2021,06,26,20,32,30.20
2021,06,26,20,33,30.10
2021,06,26,20,34,30.00
2021,06,26,20,35,29.90
2021,06,26,20,36,29.90
2021,06,26,20,37,29.80
2021,06,26,20,38,29.70
2021,06,26,20,39,29.60
2021,06,26,20,40,29.60
2021,06,26,20,41,29.50
2021,06,26,20,42,29.40
2021,06,26,20,43,29.40
2021,06,26,20,44,29.40
2021,06,26,20,45,29.30
2021,06,26,20,46,29.30
2021,06,26,20,47,29.30
2021,06,26,20,48,29.30
2021,06,26,20,49,29.30
2021,06,26,20,50,29.30
2021,06,26,20,51,29.30
2021,06,26,20,52,29.30
2021,06,26,20,53,29.20
2021,06,26,20,54,29.20
2021,06,26,20,55,29.20
2021,06,26,20,56,29.20
2021,06,26,20,57,29.20
2021,06,26,20,58,29.20
2021,06,26,20,59,29.20
2021,06,26,21,00,29.20
2021,06,26,21,01,29.20
2021,06,26,21,02,29.20
2021,06,26,21,03,29.20
2021,06,26,21,04,29.20
2021,06,26,21,05,29.20
2021,06,26,21,06,29.20
2021,06,26,21,07,29.20
